Time,TemperatureF,DewpointF,PressureIn,WindDirection,WindDirectionDegrees,WindSpeedMPH,WindSpeedGustMPH,Humidity,HourlyPrecipIn,Conditions,Clouds,dailyrainin,SoftwareType,DateUTC
2013-08-19 00:01:00,63.0,58.7,30.20,WSW,254,0.0,2.8,86,0.00,,,0.00,VWS V13.01,2013-08-19 04:01:00,
2013-08-19 00:06:00,63.0,58.7,30.20,WSW,254,0.0,0.0,86,0.00,,,0.00,VWS V13.01,2013-08-19 04:06:00,
2013-08-19 00:11:00,63.0,59.0,30.20,WSW,254,0.0,0.0,87,0.00,,,0.00,VWS V13.01,2013-08-19 04:11:00,
2013-08-19 00:16:00,63.1,59.5,30.20,WSW,254,0.0,0.0,88,0.00,,,0.00,VWS V13.01,2013-08-19 04:16:00,
2013-08-19 00:21:00,63.1,59.5,30.20,WSW,254,0.0,0.0,88,0.00,,,0.00,VWS V13.01,2013-08-19 04:21:00,
2013-08-19 00:26:00,63.1,59.5,30.20,WSW,254,0.0,0.0,88,0.00,,,0.00,VWS V13.01,2013-08-19 04:26:00,
2013-08-19 00:31:00,63.1,59.5,30.20,WSW,254,0.0,0.0,88,0.00,,,0.00,VWS V13.01,2013-08-19 04:31:00,
2013-08-19 00:36:00,63.3,59.7,30.20,WSW,254,0.0,0.0,88,0.00,,,0.00,VWS V13.01,2013-08-19 04:36:00,
2013-08-19 00:41:00,63.3,59.7,30.20,WSW,254,0.0,0.0,88,0.00,,,0.00,VWS V13.01,2013-08-19 04:41:00,
2013-08-19 00:46:00,63.3,59.7,30.20,SSE,155,0.0,0.0,88,0.00,,,0.00,VWS V13.01,2013-08-19 04:46:00,
2013-08-19 00:51:00,63.3,59.7,30.20,SSE,155,0.0,0.0,88,0.00,,,0.00,VWS V13.01,2013-08-19 04:51:00,
2013-08-19 00:56:00,63.3,59.7,30.20,SSE,155,0.0,0.0,88,0.00,,OVC026,0.00,VWS V13.01,2013-08-19 04:56:00,
2013-08-19 01:01:00,63.5,60.2,30.20,SSE,162,0.0,0.0,89,0.00,,OVC026,0.00,VWS V13.01,2013-08-19 05:01:00,
2013-08-19 01:06:00,63.5,60.2,30.20,SSE,161,0.0,0.0,89,0.00,,OVC026,0.00,VWS V13.01,2013-08-19 05:06:00,
2013-08-19 01:11:00,63.5,60.2,30.20,SSE,161,0.0,0.0,89,0.00,,OVC026,0.00,VWS V13.01,2013-08-19 05:11:00,
2013-08-19 01:16:00,63.5,60.2,30.20,SSE,161,0.0,0.0,89,0.00,,OVC026,0.00,VWS V13.01,2013-08-19 05:16:00,
2013-08-19 01:21:00,63.5,60.2,30.20,SSE,161,0.0,0.0,89,0.00,,OVC026,0.00,VWS V13.01,2013-08-19 05:21:00,
2013-08-19 01:26:00,63.5,60.2,30.20,SSE,162,0.0,0.0,89,0.00,,OVC026,0.00,VWS V13.01,2013-08-19 05:26:00,
2013-08-19 01:31:00,63.5,60.2,30.20,SSE,158,0.0,0.0,89,0.00,,OVC026,0.00,VWS V13.01,2013-08-19 05:31:00,
2013-08-19 01:36:00,63.5,60.5,30.20,SSE,158,0.0,0.0,90,0.00,,OVC026,0.00,VWS V13.01,2013-08-19 05:36:00,
2013-08-19 01:41:00,63.5,60.5,30.17,SSE,153,0.0,2.8,90,0.00,,OVC026,0.00,VWS V13.01,2013-08-19 05:41:00,
2013-08-19 01:46:00,63.5,60.5,30.17,SE,143,0.0,3.9,90,0.00,,OVC026,0.00,VWS V13.01,2013-08-19 05:46:00,
2013-08-19 01:51:00,63.5,60.5,30.17,SW,216,0.0,0.0,90,0.00,,OVC026,0.00,VWS V13.01,2013-08-19 05:51:00,
2013-08-19 01:56:00,63.5,60.5,30.17,SE,137,0.0,0.0,90,0.00,,OVC026,0.00,VWS V13.01,2013-08-19 05:56:00,
2013-08-19 02:01:00,63.5,60.5,30.17,SE,137,0.0,0.0,90,0.00,,OVC026,0.00,VWS V13.01,2013-08-19 06:01:00,
2013-08-19 02:06:00,63.5,60.5,30.17,SE,137,0.0,0.0,90,0.00,,OVC026,0.00,VWS V13.01,2013-08-19 06:06:00,
2013-08-19 02:11:00,63.5,60.5,30.17,SSW,205,4.5,4.5,90,0.00,,OVC026,0.00,VWS V13.01,2013-08-19 06:11:00,
2013-08-19 02:16:00,63.5,60.8,30.17,SSE,162,0.0,0.0,91,0.00,,OVC026,0.00,VWS V13.01,2013-08-19 06:16:00,
2013-08-19 02:21:00,63.5,60.8,30.17,SSE,147,3.9,3.9,91,0.00,,OVC026,0.00,VWS V13.01,2013-08-19 06:21:00,
2013-08-19 02:26:00,63.5,60.8,30.17,WSW,240,0.0,3.9,91,0.00,,OVC026,0.00,VWS V13.01,2013-08-19 06:26:00,
2013-08-19 02:31:00,63.5,61.1,30.17,WSW,244,0.0,0.0,92,0.00,,OVC026,0.00,VWS V13.01,2013-08-19 06:31:00,
2013-08-19 02:36:00,63.5,60.8,30.17,SE,142,3.4,3.9,91,0.00,,OVC026,0.00,VWS V13.01,2013-08-19 06:36:00,
2013-08-19 02:41:00,63.5,61.1,30.17,SSE,160,0.0,0.0,92,0.00,,OVC024,0.00,VWS V13.01,2013-08-19 06:41:00,
2013-08-19 02:46:00,63.5,61.1,30.17,SSE,160,0.0,0.0,92,0.00,,OVC024,0.00,VWS V13.01,2013-08-19 06:46:00,
2013-08-19 02:51:00,63.5,61.1,30.17,SSE,160,0.0,0.0,92,0.00,,OVC024,0.00,VWS V13.01,2013-08-19 06:51:00,
2013-08-19 02:56:00,63.5,61.1,30.17,SSW,192,0.0,0.0,92,0.00,,OVC022,0.00,VWS V13.01,2013-08-19 06:56:00,
2013-08-19 03:01:00,63.5,61.1,30.17,SE,134,0.0,2.8,92,0.00,,OVC022,0.00,VWS V13.01,2013-08-19 07:01:00,
2013-08-19 03:06:00,63.5,61.1,30.17,SE,134,0.0,0.0,92,0.00,,OVC022,0.00,VWS V13.01,2013-08-19 07:06:00,
2013-08-19 03:11:00,63.5,61.1,30.14,SE,134,0.0,0.0,92,0.00,,OVC022,0.00,VWS V13.01,2013-08-19 07:11:00,
2013-08-19 03:16:00,63.5,61.1,30.14,SE,134,0.0,0.0,92,0.00,,OVC022,0.00,VWS V13.01,2013-08-19 07:16:00,
2013-08-19 03:21:00,63.5,61.1,30.14,SE,134,0.0,0.0,92,0.00,,OVC022,0.00,VWS V13.01,2013-08-19 07:21:00,
2013-08-19 03:26:00,63.5,61.1,30.14,SE,134,0.0,0.0,92,0.00,,OVC022,0.00,VWS V13.01,2013-08-19 07:26:00,
2013-08-19 03:31:00,63.5,61.1,30.14,SE,134,0.0,0.0,92,0.00,,OVC022,0.00,VWS V13.01,2013-08-19 07:31:00,
2013-08-19 03:36:00,63.3,61.0,30.14,SE,141,3.4,3.4,92,0.00,,BKN055,0.00,VWS V13.01,2013-08-19 07:36:00,
2013-08-19 03:41:00,63.3,61.0,30.17,SE,125,0.0,3.9,92,0.00,,BKN055,0.00,VWS V13.01,2013-08-19 07:41:00,
2013-08-19 03:46:00,63.3,61.0,30.17,SE,146,0.0,0.0,92,0.00,,BKN055,0.00,VWS V13.01,2013-08-19 07:46:00,
2013-08-19 03:51:00,63.1,60.8,30.17,SSE,149,5.0,5.0,92,0.00,,BKN055,0.00,VWS V13.01,2013-08-19 07:51:00,
2013-08-19 03:56:00,63.1,61.1,30.14,SE,126,4.5,4.5,93,0.00,,SCT055,0.00,VWS V13.01,2013-08-19 07:56:00,
2013-08-19 04:01:00,63.1,61.1,30.14,South,177,5.0,5.0,93,0.00,,SCT055,0.00,VWS V13.01,2013-08-19 08:01:00,
2013-08-19 04:06:00,63.0,60.9,30.14,SSE,150,0.0,0.0,93,0.00,,SCT055,0.00,VWS V13.01,2013-08-19 08:06:00,
2013-08-19 04:13:00,63.0,60.9,30.14,SSE,151,0.0,0.0,93,0.00,,SCT055,0.00,VWS V13.01,2013-08-19 08:13:00,
2013-08-19 04:18:00,63.0,60.9,30.14,SE,142,0.0,0.0,93,0.00,,SCT017,0.00,VWS V13.01,2013-08-19 08:18:00,
2013-08-19 04:23:00,63.0,60.9,30.14,SE,142,0.0,0.0,93,0.00,,SCT017,0.00,VWS V13.01,2013-08-19 08:23:00,
2013-08-19 04:28:00,62.8,60.7,30.14,SE,142,0.0,0.0,93,0.00,,SCT017,0.00,VWS V13.01,2013-08-19 08:28:00,
2013-08-19 04:33:00,62.8,61.0,30.14,SE,131,4.5,4.5,94,0.00,,SCT017,0.00,VWS V13.01,2013-08-19 08:33:00,
2013-08-19 04:38:00,62.8,61.0,30.14,South,189,0.0,2.8,94,0.00,,BKN017,0.00,VWS V13.01,2013-08-19 08:38:00,
2013-08-19 04:43:00,62.8,61.0,30.14,South,187,0.0,0.0,94,0.00,,BKN017,0.00,VWS V13.01,2013-08-19 08:43:00,
2013-08-19 04:49:00,62.6,60.8,30.14,South,187,0.0,0.0,94,0.00,,BKN017,0.00,VWS V13.01,2013-08-19 08:49:00,
2013-08-19 04:54:00,62.6,60.8,30.14,South,175,0.0,0.0,94,0.00,,BKN017,0.00,VWS V13.01,2013-08-19 08:54:00,
2013-08-19 05:07:00,62.6,60.8,30.14,SSE,153,0.0,0.0,94,0.00,,BKN017,0.00,VWS V13.01,2013-08-19 09:07:00,
2013-08-19 05:12:00,62.6,60.8,30.14,SSE,147,0.0,0.0,94,0.00,,SCT100,0.00,VWS V13.01,2013-08-19 09:12:00,
2013-08-19 05:17:00,62.6,61.2,30.14,SSE,147,0.0,0.0,95,0.00,,SCT100,0.00,VWS V13.01,2013-08-19 09:17:00,
2013-08-19 05:22:00,62.6,61.2,30.14,SSE,147,0.0,0.0,95,0.00,,SCT100,0.00,VWS V13.01,2013-08-19 09:22:00,
2013-08-19 05:27:00,62.6,61.2,30.14,SSE,147,0.0,0.0,95,0.00,,SCT100,0.00,VWS V13.01,2013-08-19 09:27:00,
2013-08-19 05:32:00,62.8,61.3,30.14,North,357,0.0,0.0,95,0.00,,SCT100,0.00,VWS V13.01,2013-08-19 09:32:00,
2013-08-19 05:37:00,62.8,61.3,30.14,North,357,0.0,0.0,95,0.00,,SCT120,0.00,VWS V13.01,2013-08-19 09:37:00,
2013-08-19 05:42:00,62.8,61.3,30.14,North,357,0.0,0.0,95,0.00,,SCT120,0.00,VWS V13.01,2013-08-19 09:42:00,
2013-08-19 05:47:00,62.8,61.3,30.14,SSE,157,3.4,3.4,95,0.01,,SCT120,0.01,VWS V13.01,2013-08-19 09:47:00,
2013-08-19 05:52:00,62.8,61.6,30.14,South,169,0.0,3.4,96,0.01,,SCT120,0.01,VWS V13.01,2013-08-19 09:52:00,
2013-08-19 05:57:00,62.6,61.2,30.14,South,169,0.0,0.0,95,0.01,,RA,0.01,VWS V13.01,2013-08-19 09:57:00,
2013-08-19 06:02:00,62.6,61.2,30.14,South,169,0.0,0.0,95,0.01,,RA,0.01,VWS V13.01,2013-08-19 10:02:00,
2013-08-19 06:07:00,62.6,61.5,30.14,SSE,149,3.9,4.5,96,0.01,,RA,0.01,VWS V13.01,2013-08-19 10:07:00,
2013-08-19 06:12:00,62.6,61.5,30.14,SE,124,5.0,5.0,96,0.01,,RA,0.01,VWS V13.01,2013-08-19 10:12:00,
2013-08-19 06:17:00,62.6,61.7,30.14,ESE,123,3.4,3.4,97,0.01,,RA,0.01,VWS V13.01,2013-08-19 10:17:00,
2013-08-19 06:22:00,62.6,61.7,30.14,WSW,241,0.0,0.0,97,0.01,,RA,0.01,VWS V13.01,2013-08-19 10:22:00,
2013-08-19 06:27:00,62.6,61.7,30.14,West,266,2.8,3.9,97,0.02,,RA,0.02,VWS V13.01,2013-08-19 10:27:00,
2013-08-19 06:32:00,62.6,61.7,30.14,West,266,0.0,0.0,97,0.02,,RA,0.02,VWS V13.01,2013-08-19 10:32:00,
2013-08-19 06:37:00,62.8,61.9,30.14,West,266,0.0,0.0,97,0.02,,RA,0.02,VWS V13.01,2013-08-19 10:37:00,
2013-08-19 06:42:00,62.8,61.9,30.14,SE,133,2.8,3.4,97,0.02,,RA,0.02,VWS V13.01,2013-08-19 10:42:00,
2013-08-19 06:47:00,62.8,61.9,30.14,SSE,161,0.0,0.0,97,0.01,,RA,0.02,VWS V13.01,2013-08-19 10:47:00,
2013-08-19 06:52:00,62.8,61.9,30.14,SSE,161,0.0,0.0,97,0.01,,RA,0.02,VWS V13.01,2013-08-19 10:52:00,
2013-08-19 06:57:00,62.8,61.9,30.17,SSE,161,0.0,0.0,97,0.01,,RA,0.02,VWS V13.01,2013-08-19 10:57:00,
2013-08-19 07:02:00,62.8,61.9,30.17,SSE,161,0.0,0.0,97,0.01,,-RA,0.02,VWS V13.01,2013-08-19 11:02:00,
2013-08-19 07:07:00,63.0,62.1,30.17,SSE,161,0.0,0.0,97,0.01,,-RA,0.02,VWS V13.01,2013-08-19 11:07:00,
2013-08-19 07:12:00,63.0,62.1,30.17,SSE,161,0.0,0.0,97,0.01,,-RA,0.02,VWS V13.01,2013-08-19 11:12:00,
2013-08-19 07:17:00,63.0,62.1,30.17,SSE,161,0.0,0.0,97,0.01,,,0.02,VWS V13.01,2013-08-19 11:17:00,
2013-08-19 07:22:00,63.0,62.1,30.17,SSE,161,0.0,0.0,97,0.01,,,0.02,VWS V13.01,2013-08-19 11:22:00,
2013-08-19 07:27:00,63.0,62.1,30.17,SSE,161,0.0,0.0,97,0.01,,,0.03,VWS V13.01,2013-08-19 11:27:00,
2013-08-19 07:32:00,63.1,62.3,30.17,SSE,161,0.0,0.0,97,0.01,,,0.03,VWS V13.01,2013-08-19 11:32:00,
2013-08-19 07:37:00,63.3,62.5,30.17,SSE,161,0.0,0.0,97,0.01,,,0.03,VWS V13.01,2013-08-19 11:37:00,
2013-08-19 07:42:00,63.3,62.5,30.17,SSE,161,0.0,0.0,97,0.01,,,0.03,VWS V13.01,2013-08-19 11:42:00,
2013-08-19 07:47:00,63.5,62.6,30.17,SSE,161,0.0,0.0,97,0.01,,,0.03,VWS V13.01,2013-08-19 11:47:00,
2013-08-19 07:52:00,63.5,62.6,30.17,ESE,118,0.0,0.0,97,0.01,,,0.03,VWS V13.01,2013-08-19 11:52:00,
2013-08-19 07:57:00,63.7,62.8,30.17,ESE,118,0.0,0.0,97,0.01,,,0.03,VWS V13.01,2013-08-19 11:57:00,
2013-08-19 08:02:00,63.9,63.0,30.17,ESE,118,0.0,0.0,97,0.01,,,0.03,VWS V13.01,2013-08-19 12:02:00,
2013-08-19 08:07:00,63.9,63.0,30.17,ESE,118,0.0,0.0,97,0.01,,,0.03,VWS V13.01,2013-08-19 12:07:00,
2013-08-19 08:12:00,64.0,63.2,30.14,ESE,118,0.0,0.0,97,0.01,,,0.03,VWS V13.01,2013-08-19 12:12:00,
2013-08-19 08:17:00,64.2,63.3,30.14,ESE,116,0.0,0.0,97,0.01,,SCT075,0.03,VWS V13.01,2013-08-19 12:17:00,
2013-08-19 08:22:00,64.2,63.3,30.14,ESE,116,0.0,0.0,97,0.01,,SCT075,0.03,VWS V13.01,2013-08-19 12:22:00,
2013-08-19 08:27:00,64.2,63.3,30.17,ESE,116,0.0,0.0,97,0.00,,SCT075,0.03,VWS V13.01,2013-08-19 12:27:00,
2013-08-19 08:32:00,64.4,63.5,30.17,ESE,116,0.0,0.0,97,0.00,,SCT075,0.03,VWS V13.01,2013-08-19 12:32:00,
2013-08-19 08:37:00,64.6,63.7,30.17,ESE,116,0.0,0.0,97,0.00,,CLR,0.03,VWS V13.01,2013-08-19 12:37:00,
2013-08-19 08:42:00,64.8,63.9,30.14,ESE,116,0.0,0.0,97,0.00,,CLR,0.03,VWS V13.01,2013-08-19 12:42:00,
2013-08-19 08:47:00,65.1,64.2,30.14,ESE,116,0.0,0.0,97,0.00,,CLR,0.03,VWS V13.01,2013-08-19 12:47:00,
2013-08-19 08:52:00,65.3,64.4,30.14,ESE,116,0.0,0.0,97,0.00,,CLR,0.03,VWS V13.01,2013-08-19 12:52:00,
2013-08-19 08:57:00,65.3,64.4,30.14,ESE,116,0.0,0.0,97,0.00,,SCT004,0.03,VWS V13.01,2013-08-19 12:57:00,
2013-08-19 09:02:00,65.5,64.6,30.14,ESE,116,0.0,0.0,97,0.00,,SCT004,0.03,VWS V13.01,2013-08-19 13:02:00,
2013-08-19 09:07:00,65.7,64.8,30.14,ESE,116,0.0,0.0,97,0.00,,SCT004,0.03,VWS V13.01,2013-08-19 13:07:00,
2013-08-19 09:12:00,65.8,65.0,30.14,ESE,116,0.0,0.0,97,0.00,,SCT004,0.03,VWS V13.01,2013-08-19 13:12:00,
2013-08-19 09:17:00,66.0,65.2,30.14,ESE,116,0.0,0.0,97,0.00,,SCT004,0.03,VWS V13.01,2013-08-19 13:17:00,
2013-08-19 09:22:00,66.2,65.3,30.14,ESE,116,0.0,0.0,97,0.00,,SCT004,0.03,VWS V13.01,2013-08-19 13:22:00,
2013-08-19 09:27:00,66.2,65.0,30.14,ESE,116,0.0,0.0,96,0.00,,SCT004,0.03,VWS V13.01,2013-08-19 13:27:00,
2013-08-19 09:32:00,66.4,65.5,30.14,ESE,116,0.0,0.0,97,0.00,,SCT004,0.03,VWS V13.01,2013-08-19 13:32:00,
2013-08-19 09:37:00,66.6,65.7,30.14,ESE,116,0.0,0.0,97,0.00,,SCT005,0.03,VWS V13.01,2013-08-19 13:37:00,
2013-08-19 09:42:00,66.7,65.6,30.14,ESE,116,0.0,0.0,96,0.00,,SCT005,0.03,VWS V13.01,2013-08-19 13:42:00,
2013-08-19 09:47:00,66.7,65.6,30.14,ESE,116,0.0,0.0,96,0.00,,SCT005,0.03,VWS V13.01,2013-08-19 13:47:00,
2013-08-19 09:52:00,66.7,65.3,30.14,WSW,248,0.0,0.0,95,0.00,,SCT005,0.03,VWS V13.01,2013-08-19 13:52:00,
2013-08-19 09:57:00,66.9,65.4,30.14,WSW,254,0.0,0.0,95,0.00,,SCT007,0.03,VWS V13.01,2013-08-19 13:57:00,
2013-08-19 10:02:00,66.9,65.4,30.14,East,91,3.4,3.9,95,0.00,,SCT007,0.03,VWS V13.01,2013-08-19 14:02:00,
2013-08-19 10:07:00,67.1,65.6,30.14,ESE,116,2.8,3.9,95,0.00,,SCT007,0.03,VWS V13.01,2013-08-19 14:07:00,
2013-08-19 10:12:00,67.3,65.8,30.14,ENE,74,0.0,0.0,95,0.00,,SCT007,0.03,VWS V13.01,2013-08-19 14:12:00,
2013-08-19 10:17:00,67.5,66.0,30.14,East,101,3.4,5.0,95,0.00,,BKN007,0.03,VWS V13.01,2013-08-19 14:17:00,
2013-08-19 10:22:00,67.6,65.9,30.14,East,86,4.5,5.0,94,0.00,,BKN007,0.03,VWS V13.01,2013-08-19 14:22:00,
2013-08-19 10:27:00,67.8,66.0,30.14,ENE,72,3.4,3.4,94,0.00,,BKN007,0.03,VWS V13.01,2013-08-19 14:27:00,
2013-08-19 10:32:00,68.0,66.2,30.14,ENE,72,0.0,0.0,94,0.00,,BKN007,0.03,VWS V13.01,2013-08-19 14:32:00,
2013-08-19 10:37:00,68.4,66.3,30.14,SE,140,0.0,2.8,93,0.00,,BKN007,0.03,VWS V13.01,2013-08-19 14:37:00,
2013-08-19 10:42:00,68.5,66.4,30.14,SE,140,0.0,0.0,93,0.00,,BKN007,0.03,VWS V13.01,2013-08-19 14:42:00,
2013-08-19 10:47:00,68.7,66.3,30.14,ESE,105,3.9,4.5,92,0.00,,BKN007,0.03,VWS V13.01,2013-08-19 14:47:00,
2013-08-19 10:52:00,69.1,66.0,30.14,East,88,3.9,4.5,90,0.00,,BKN007,0.03,VWS V13.01,2013-08-19 14:52:00,
2013-08-19 10:57:00,69.3,65.9,30.14,East,90,0.0,0.0,89,0.00,,OVC007,0.03,VWS V13.01,2013-08-19 14:57:00,
2013-08-19 11:02:00,69.6,64.6,30.14,East,90,0.0,0.0,84,0.00,,OVC007,0.03,VWS V13.01,2013-08-19 15:02:00,
2013-08-19 11:07:00,70.0,64.9,30.14,East,90,0.0,0.0,84,0.00,,OVC007,0.03,VWS V13.01,2013-08-19 15:07:00,
2013-08-19 11:12:00,70.9,65.8,30.14,East,90,0.0,0.0,84,0.00,,OVC007,0.03,VWS V13.01,2013-08-19 15:12:00,
2013-08-19 11:17:00,71.4,64.2,30.14,WSW,250,4.5,4.5,78,0.00,,OVC009,0.03,VWS V13.01,2013-08-19 15:17:00,
2013-08-19 11:22:00,72.0,62.8,30.14,North,357,0.0,3.4,73,0.00,,OVC009,0.03,VWS V13.01,2013-08-19 15:22:00,
2013-08-19 11:27:00,71.8,63.1,30.14,SE,127,5.6,5.6,74,0.00,,OVC009,0.03,VWS V13.01,2013-08-19 15:27:00,
2013-08-19 11:32:00,71.6,60.1,30.14,SE,133,6.7,6.7,67,0.00,,OVC009,0.03,VWS V13.01,2013-08-19 15:32:00,
2013-08-19 11:37:00,71.6,59.2,30.14,SW,235,0.0,3.4,65,0.00,,OVC009,0.03,VWS V13.01,2013-08-19 15:37:00,
2013-08-19 11:42:00,71.6,60.1,30.14,ESE,102,3.4,6.2,67,0.00,,OVC009,0.03,VWS V13.01,2013-08-19 15:42:00,
2013-08-19 11:47:00,71.8,59.8,30.14,SE,136,0.0,5.0,66,0.00,,OVC009,0.03,VWS V13.01,2013-08-19 15:47:00,
2013-08-19 11:52:00,72.0,60.4,30.14,SE,126,0.0,3.9,67,0.00,,OVC009,0.03,VWS V13.01,2013-08-19 15:52:00,
2013-08-19 11:57:00,72.1,59.7,30.14,ESE,113,3.9,5.0,65,0.00,,OVC009,0.03,VWS V13.01,2013-08-19 15:57:00,
2013-08-19 12:02:00,72.7,59.8,30.14,SE,128,5.0,5.0,64,0.00,,OVC011,0.03,VWS V13.01,2013-08-19 16:02:00,
2013-08-19 12:07:00,73.0,59.3,30.14,SSW,207,0.0,0.0,62,0.00,,OVC011,0.03,VWS V13.01,2013-08-19 16:07:00,
2013-08-19 12:12:00,73.6,59.8,30.14,South,173,2.8,3.4,62,0.00,,OVC011,0.03,VWS V13.01,2013-08-19 16:12:00,
2013-08-19 12:17:00,74.1,60.3,30.14,SE,124,3.9,4.5,62,0.00,,OVC013,0.03,VWS V13.01,2013-08-19 16:17:00,
2013-08-19 12:22:00,74.3,59.5,30.14,SE,124,3.9,3.9,60,0.00,,OVC013,0.03,VWS V13.01,2013-08-19 16:22:00,
2013-08-19 12:27:00,74.3,59.1,30.14,SW,234,3.9,3.9,59,0.00,,OVC013,0.03,VWS V13.01,2013-08-19 16:27:00,
2013-08-19 12:32:00,74.8,60.0,30.14,South,187,2.8,2.8,60,0.00,,OVC013,0.03,VWS V13.01,2013-08-19 16:32:00,
2013-08-19 12:37:00,75.4,60.1,30.14,South,187,2.8,2.8,59,0.00,,OVC090,0.03,VWS V13.01,2013-08-19 16:37:00,
2013-08-19 12:42:00,75.7,59.9,30.14,SSW,194,0.0,3.9,58,0.00,,OVC090,0.03,VWS V13.01,2013-08-19 16:42:00,
2013-08-19 12:47:00,75.7,59.4,30.14,SSW,194,0.0,0.0,57,0.00,,OVC090,0.03,VWS V13.01,2013-08-19 16:47:00,
2013-08-19 12:52:00,75.4,59.1,30.14,SSW,194,0.0,0.0,57,0.00,,OVC090,0.03,VWS V13.01,2013-08-19 16:52:00,
2013-08-19 12:57:00,75.6,59.3,30.14,SSW,194,0.0,0.0,57,0.00,,OVC039,0.03,VWS V13.01,2013-08-19 16:57:00,
2013-08-19 13:02:00,75.4,59.1,30.14,SSW,194,0.0,0.0,57,0.00,,OVC039,0.03,VWS V13.01,2013-08-19 17:02:00,
2013-08-19 13:07:00,75.0,59.3,30.14,SSW,194,0.0,0.0,58,0.00,,OVC039,0.03,VWS V13.01,2013-08-19 17:07:00,
2013-08-19 13:12:00,74.7,58.9,30.14,SSW,194,0.0,0.0,58,0.00,,OVC039,0.03,VWS V13.01,2013-08-19 17:12:00,
2013-08-19 13:17:00,74.7,58.9,30.14,SSW,194,0.0,0.0,58,0.00,,OVC039,0.03,VWS V13.01,2013-08-19 17:17:00,
2013-08-19 13:22:00,74.7,58.9,30.14,SSW,194,0.0,0.0,58,0.00,,OVC039,0.03,VWS V13.01,2013-08-19 17:22:00,
2013-08-19 13:27:00,75.0,59.7,30.14,SSW,194,0.0,0.0,59,0.00,,OVC039,0.03,VWS V13.01,2013-08-19 17:27:00,
2013-08-19 13:32:00,75.7,59.9,30.14,SSW,194,0.0,0.0,58,0.00,,OVC039,0.03,VWS V13.01,2013-08-19 17:32:00,
2013-08-19 13:37:00,76.3,60.0,30.14,SSW,194,0.0,0.0,57,0.00,,BKN090,0.03,VWS V13.01,2013-08-19 17:37:00,
2013-08-19 13:42:00,77.0,60.6,30.14,SE,139,2.8,5.0,57,0.00,,BKN090,0.03,VWS V13.01,2013-08-19 17:42:00,
2013-08-19 13:47:00,77.2,60.3,30.14,ENE,59,0.0,0.0,56,0.00,,BKN090,0.03,VWS V13.01,2013-08-19 17:47:00,
2013-08-19 13:52:00,77.0,60.1,30.14,ENE,63,0.0,0.0,56,0.00,,BKN090,0.03,VWS V13.01,2013-08-19 17:52:00,
2013-08-19 13:57:00,77.2,60.3,30.14,SW,230,0.0,0.0,56,0.00,,BKN042,0.03,VWS V13.01,2013-08-19 17:57:00,
2013-08-19 14:02:00,77.2,60.3,30.14,West,264,0.0,2.8,56,0.00,,BKN042,0.03,VWS V13.01,2013-08-19 18:02:00,
2013-08-19 14:07:00,77.2,59.8,30.14,WSW,251,0.0,3.9,55,0.00,,BKN042,0.03,VWS V13.01,2013-08-19 18:07:00,
2013-08-19 14:12:00,77.2,59.8,30.11,NNW,348,0.0,0.0,55,0.00,,BKN042,0.03,VWS V13.01,2013-08-19 18:12:00,
2013-08-19 14:17:00,77.4,60.5,30.11,South,170,0.0,3.9,56,0.00,,OVC046,0.03,VWS V13.01,2013-08-19 18:17:00,
2013-08-19 14:22:00,77.4,60.0,30.11,SSE,166,5.0,6.2,55,0.00,,OVC046,0.03,VWS V13.01,2013-08-19 18:22:00,
2013-08-19 14:27:00,77.9,60.5,30.11,SE,130,0.0,4.5,55,0.00,,OVC046,0.03,VWS V13.01,2013-08-19 18:27:00,
2013-08-19 14:32:00,78.3,59.7,30.11,SW,219,0.0,0.0,53,0.00,,OVC046,0.03,VWS V13.01,2013-08-19 18:32:00,
2013-08-19 14:37:00,78.4,59.9,30.11,ESE,107,2.8,5.0,53,0.00,,OVC046,0.03,VWS V13.01,2013-08-19 18:37:00,
2013-08-19 14:42:00,78.8,59.2,30.11,West,270,0.0,3.4,51,0.00,,OVC046,0.03,VWS V13.01,2013-08-19 18:42:00,
2013-08-19 14:47:00,79.0,59.9,30.11,SE,135,5.0,6.2,52,0.00,,OVC046,0.03,VWS V13.01,2013-08-19 18:47:00,
2013-08-19 14:52:00,79.3,60.2,30.11,SE,138,3.4,4.5,52,0.00,,OVC046,0.03,VWS V13.01,2013-08-19 18:52:00,
2013-08-19 14:57:00,79.5,59.3,30.11,South,185,0.0,0.0,50,0.00,,OVC090,0.03,VWS V13.01,2013-08-19 18:57:00,
2013-08-19 15:02:00,79.3,59.1,30.11,SSE,156,3.4,3.4,50,0.00,,OVC090,0.03,VWS V13.01,2013-08-19 19:02:00,
2013-08-19 15:07:00,79.2,58.9,30.11,SE,128,0.0,3.4,50,0.00,,OVC090,0.03,VWS V13.01,2013-08-19 19:07:00,
2013-08-19 15:12:00,79.0,58.8,30.11,SE,126,3.4,4.5,50,0.00,,OVC090,0.03,VWS V13.01,2013-08-19 19:12:00,
2013-08-19 15:17:00,79.0,59.3,30.11,ESE,104,0.0,0.0,51,0.00,,OVC090,0.03,VWS V13.01,2013-08-19 19:17:00,
2013-08-19 15:22:00,78.6,59.0,30.11,East,99,3.4,3.9,51,0.00,,OVC090,0.03,VWS V13.01,2013-08-19 19:22:00,
2013-08-19 15:27:00,79.3,59.7,30.11,SE,140,0.0,4.5,51,0.00,,OVC090,0.03,VWS V13.01,2013-08-19 19:27:00,
2013-08-19 15:32:00,79.7,58.9,30.11,WNW,284,0.0,4.5,49,0.00,,OVC090,0.03,VWS V13.01,2013-08-19 19:32:00,
2013-08-19 15:37:00,79.7,59.4,30.11,East,99,3.4,6.2,50,0.00,,BKN090,0.03,VWS V13.01,2013-08-19 19:37:00,
2013-08-19 15:42:00,80.1,59.8,30.08,NNW,336,5.0,5.0,50,0.00,,BKN090,0.03,VWS V13.01,2013-08-19 19:42:00,
2013-08-19 15:47:00,80.1,59.8,30.08,SE,131,6.2,6.2,50,0.00,,BKN090,0.03,VWS V13.01,2013-08-19 19:47:00,
2013-08-19 15:52:00,80.1,59.2,30.08,SE,129,4.5,6.7,49,0.00,,BKN090,0.03,VWS V13.01,2013-08-19 19:52:00,
2013-08-19 15:57:00,79.9,59.0,30.08,SE,136,3.9,4.5,49,0.00,,SCT031,0.03,VWS V13.01,2013-08-19 19:57:00,
2013-08-19 16:02:00,79.9,58.5,30.08,ESE,119,5.0,5.0,48,0.00,,SCT031,0.03,VWS V13.01,2013-08-19 20:02:00,
2013-08-19 16:07:00,79.9,59.6,30.08,South,191,3.9,4.5,50,0.00,,SCT031,0.03,VWS V13.01,2013-08-19 20:07:00,
2013-08-19 16:12:00,79.9,58.5,30.08,SE,130,2.8,3.9,48,0.00,,SCT031,0.03,VWS V13.01,2013-08-19 20:12:00,
2013-08-19 16:17:00,79.9,59.0,30.08,SE,139,3.9,3.9,49,0.00,,SCT031,0.03,VWS V13.01,2013-08-19 20:17:00,
2013-08-19 16:22:00,79.9,59.0,30.08,WSW,248,3.9,4.5,49,0.00,,SCT048,0.03,VWS V13.01,2013-08-19 20:22:00,
2013-08-19 16:27:00,79.5,58.1,30.08,SSW,205,0.0,4.5,48,0.00,,SCT048,0.03,VWS V13.01,2013-08-19 20:27:00,
2013-08-19 16:32:00,79.3,58.5,30.08,SW,227,0.0,4.5,49,0.00,,SCT048,0.03,VWS V13.01,2013-08-19 20:32:00,
2013-08-19 16:37:00,79.2,58.4,30.08,South,189,5.0,5.0,49,0.00,,SCT046,0.03,VWS V13.01,2013-08-19 20:37:00,
2013-08-19 16:42:00,79.5,58.7,30.08,SW,218,0.0,3.9,49,0.00,,SCT046,0.03,VWS V13.01,2013-08-19 20:42:00,
2013-08-19 16:47:00,79.5,58.7,30.08,SSE,151,4.5,5.0,49,0.00,,SCT046,0.03,VWS V13.01,2013-08-19 20:47:00,
2013-08-19 16:52:00,79.7,58.9,30.08,SSW,196,0.0,4.5,49,0.00,,SCT046,0.03,VWS V13.01,2013-08-19 20:52:00,
2013-08-19 16:57:00,79.7,58.9,30.08,South,169,3.4,4.5,49,0.00,,SCT080,0.03,VWS V13.01,2013-08-19 20:57:00,
2013-08-19 17:02:00,79.5,59.3,30.08,WSW,250,4.5,8.4,50,0.00,,SCT080,0.03,VWS V13.01,2013-08-19 21:02:00,
2013-08-19 17:07:00,79.2,58.4,30.08,WSW,257,3.4,5.0,49,0.00,,SCT080,0.03,VWS V13.01,2013-08-19 21:07:00,
2013-08-19 17:12:00,78.8,58.0,30.08,WSW,251,3.9,3.9,49,0.00,,SCT080,0.03,VWS V13.01,2013-08-19 21:12:00,
2013-08-19 17:17:00,78.4,58.8,30.08,SW,229,2.8,4.5,51,0.00,,SCT080,0.03,VWS V13.01,2013-08-19 21:17:00,
2013-08-19 17:22:00,78.3,59.7,30.08,South,169,3.9,3.9,53,0.00,,SCT080,0.03,VWS V13.01,2013-08-19 21:22:00,
2013-08-19 17:27:00,78.3,59.7,30.08,SE,126,3.9,4.5,53,0.00,,SCT080,0.03,VWS V13.01,2013-08-19 21:27:00,
2013-08-19 17:32:00,78.1,58.5,30.08,SSE,159,3.4,5.0,51,0.00,,SCT080,0.03,VWS V13.01,2013-08-19 21:32:00,
2013-08-19 17:37:00,78.1,59.0,30.08,SE,145,3.4,3.4,52,0.00,,CLR,0.03,VWS V13.01,2013-08-19 21:37:00,
2013-08-19 17:42:00,78.1,59.6,30.08,SSE,148,2.8,3.4,53,0.00,,CLR,0.03,VWS V13.01,2013-08-19 21:42:00,
2013-08-19 17:47:00,78.3,59.7,30.08,SSE,154,3.4,3.4,53,0.00,,CLR,0.03,VWS V13.01,2013-08-19 21:47:00,
2013-08-19 17:52:00,78.3,59.2,30.08,SSE,162,0.0,0.0,52,0.00,,CLR,0.03,VWS V13.01,2013-08-19 21:52:00,
2013-08-19 17:57:00,78.4,59.9,30.08,WSW,247,3.4,3.4,53,0.00,,CLR,0.03,VWS V13.01,2013-08-19 21:57:00,
2013-08-19 18:03:00,78.1,59.6,30.08,WSW,242,0.0,0.0,53,0.00,,CLR,0.03,VWS V13.01,2013-08-19 22:03:00,
2013-08-19 18:08:00,77.9,59.4,30.08,South,173,5.0,5.0,53,0.00,,CLR,0.03,VWS V13.01,2013-08-19 22:08:00,
2013-08-19 18:13:00,77.9,59.4,30.08,SW,230,4.5,4.5,53,0.00,,CLR,0.03,VWS V13.01,2013-08-19 22:13:00,
2013-08-19 18:18:00,77.9,59.9,30.08,South,181,3.4,3.4,54,0.00,,SCT060,0.03,VWS V13.01,2013-08-19 22:18:00,
2013-08-19 18:22:00,78.1,59.6,30.08,WSW,251,2.8,3.4,53,0.00,,SCT060,0.03,VWS V13.01,2013-08-19 22:22:00,
2013-08-19 18:28:00,78.1,59.6,30.08,West,268,2.8,5.0,53,0.00,,SCT060,0.03,VWS V13.01,2013-08-19 22:28:00,
2013-08-19 18:33:00,78.1,59.0,30.08,SSE,149,2.8,2.8,52,0.00,,SCT060,0.03,VWS V13.01,2013-08-19 22:33:00,
2013-08-19 18:38:00,77.9,58.9,30.08,WSW,254,3.4,3.9,52,0.00,,CLR,0.03,VWS V13.01,2013-08-19 22:38:00,
2013-08-19 18:43:00,77.9,59.4,30.08,West,266,0.0,3.9,53,0.00,,CLR,0.03,VWS V13.01,2013-08-19 22:43:00,
2013-08-19 18:48:00,77.7,59.2,30.08,SSW,205,0.0,0.0,53,0.00,,CLR,0.03,VWS V13.01,2013-08-19 22:48:00,
2013-08-19 18:53:00,77.7,59.2,30.08,SE,138,0.0,3.4,53,0.00,,CLR,0.03,VWS V13.01,2013-08-19 22:53:00,
2013-08-19 18:58:00,77.7,59.8,30.08,West,266,0.0,3.4,54,0.00,,CLR,0.03,VWS V13.01,2013-08-19 22:58:00,
2013-08-19 19:03:00,77.5,60.1,30.08,SE,133,3.4,4.5,55,0.00,,CLR,0.03,VWS V13.01,2013-08-19 23:03:00,
2013-08-19 19:08:00,77.4,60.0,30.08,SSE,155,3.4,5.0,55,0.00,,CLR,0.03,VWS V13.01,2013-08-19 23:08:00,
2013-08-19 19:13:00,77.0,59.6,30.08,SSE,149,3.4,4.5,55,0.00,,CLR,0.03,VWS V13.01,2013-08-19 23:13:00,
2013-08-19 19:18:00,76.6,59.8,30.08,SE,129,0.0,3.4,56,0.00,,CLR,0.03,VWS V13.01,2013-08-19 23:18:00,
2013-08-19 19:23:00,76.3,59.5,30.08,SE,141,0.0,3.9,56,0.00,,CLR,0.03,VWS V13.01,2013-08-19 23:23:00,
2013-08-19 19:28:00,76.1,59.3,30.08,SSE,164,2.8,3.4,56,0.00,,CLR,0.03,VWS V13.01,2013-08-19 23:28:00,
2013-08-19 19:32:00,75.7,59.0,30.08,SSW,199,0.0,0.0,56,0.00,,CLR,0.03,VWS V13.01,2013-08-19 23:32:00,
2013-08-19 19:38:00,75.4,59.1,30.08,SSE,158,0.0,3.4,57,0.00,,CLR,0.03,VWS V13.01,2013-08-19 23:38:00,
2013-08-19 19:43:00,75.0,58.8,30.08,SSE,166,0.0,0.0,57,0.00,,CLR,0.03,VWS V13.01,2013-08-19 23:43:00,
2013-08-19 19:48:00,74.8,59.1,30.08,SSE,167,0.0,0.0,58,0.00,,CLR,0.03,VWS V13.01,2013-08-19 23:48:00,
2013-08-19 19:53:00,74.5,58.8,30.08,South,188,0.0,0.0,58,0.00,,CLR,0.03,VWS V13.01,2013-08-19 23:53:00,
2013-08-19 19:58:00,74.1,58.4,30.08,SSE,165,0.0,0.0,58,0.00,,CLR,0.03,VWS V13.01,2013-08-19 23:58:00,
2013-08-19 20:03:00,73.9,58.7,30.08,SSE,166,0.0,4.5,59,0.00,,CLR,0.03,VWS V13.01,2013-08-20 00:03:00,
2013-08-19 20:08:00,73.6,58.4,30.08,SSW,198,0.0,0.0,59,0.00,,CLR,0.03,VWS V13.01,2013-08-20 00:08:00,
2013-08-19 20:13:00,73.4,58.7,30.08,South,181,0.0,0.0,60,0.00,,CLR,0.03,VWS V13.01,2013-08-20 00:13:00,
2013-08-19 20:18:00,73.0,58.8,30.08,South,189,3.9,3.9,61,0.00,,CLR,0.03,VWS V13.01,2013-08-20 00:18:00,
2013-08-19 20:23:00,72.9,59.1,30.08,South,181,0.0,0.0,62,0.00,,CLR,0.03,VWS V13.01,2013-08-20 00:23:00,
2013-08-19 20:28:00,72.7,59.4,30.08,South,173,0.0,0.0,63,0.00,,CLR,0.03,VWS V13.01,2013-08-20 00:28:00,
2013-08-19 20:33:00,72.5,59.6,30.08,South,178,0.0,0.0,64,0.00,,CLR,0.03,VWS V13.01,2013-08-20 00:33:00,
2013-08-19 20:38:00,72.1,59.3,30.08,SSE,164,0.0,3.4,64,0.00,,CLR,0.03,VWS V13.01,2013-08-20 00:38:00,
2013-08-19 20:43:00,71.8,59.0,30.08,South,186,0.0,0.0,64,0.00,,CLR,0.03,VWS V13.01,2013-08-20 00:43:00,
2013-08-19 20:48:00,71.6,59.2,30.08,SE,142,2.8,2.8,65,0.00,,CLR,0.03,VWS V13.01,2013-08-20 00:48:00,
2013-08-19 20:53:00,71.4,59.9,30.08,West,266,0.0,6.2,67,0.00,,CLR,0.03,VWS V13.01,2013-08-20 00:53:00,
2013-08-19 20:58:00,71.2,60.2,30.08,SW,218,0.0,0.0,68,0.00,,CLR,0.03,VWS V13.01,2013-08-20 00:58:00,
2013-08-19 21:03:00,71.1,60.0,30.08,SSE,149,0.0,2.8,68,0.00,,CLR,0.03,VWS V13.01,2013-08-20 01:03:00,
2013-08-19 21:08:00,71.1,60.0,30.08,SSE,150,0.0,0.0,68,0.00,,CLR,0.03,VWS V13.01,2013-08-20 01:08:00,
2013-08-19 21:13:00,70.9,59.8,30.11,SSE,150,0.0,0.0,68,0.00,,CLR,0.03,VWS V13.01,2013-08-20 01:13:00,
2013-08-19 21:18:00,70.5,59.5,30.11,South,171,0.0,0.0,68,0.00,,SCT046,0.03,VWS V13.01,2013-08-20 01:18:00,
2013-08-19 21:23:00,70.3,59.3,30.11,South,176,0.0,0.0,68,0.00,,SCT046,0.03,VWS V13.01,2013-08-20 01:23:00,
2013-08-19 21:28:00,70.3,59.7,30.11,SW,226,0.0,0.0,69,0.00,,SCT046,0.03,VWS V13.01,2013-08-20 01:28:00,
2013-08-19 21:33:00,70.2,59.5,30.11,South,188,0.0,3.4,69,0.00,,SCT046,0.03,VWS V13.01,2013-08-20 01:33:00,
2013-08-19 21:38:00,70.0,59.3,30.11,SSE,151,0.0,0.0,69,0.00,,SCT055,0.03,VWS V13.01,2013-08-20 01:38:00,
2013-08-19 21:43:00,70.0,59.3,30.11,SSE,152,0.0,0.0,69,0.00,,SCT055,0.03,VWS V13.01,2013-08-20 01:43:00,
2013-08-19 21:48:00,69.8,59.6,30.11,ESE,120,2.8,4.5,70,0.00,,SCT055,0.03,VWS V13.01,2013-08-20 01:48:00,
2013-08-19 21:53:00,69.6,59.4,30.11,ESE,121,0.0,2.8,70,0.00,,SCT055,0.03,VWS V13.01,2013-08-20 01:53:00,
2013-08-19 21:58:00,69.4,59.2,30.11,ESE,121,0.0,0.0,70,0.00,,SCT044,0.03,VWS V13.01,2013-08-20 01:58:00,
2013-08-19 22:03:00,69.3,59.5,30.11,ESE,121,0.0,0.0,71,0.00,,SCT044,0.03,VWS V13.01,2013-08-20 02:03:00,
2013-08-19 22:08:00,69.1,59.3,30.11,SE,129,0.0,0.0,71,0.00,,SCT044,0.03,VWS V13.01,2013-08-20 02:08:00,
2013-08-19 22:13:00,68.9,59.1,30.11,SE,129,0.0,0.0,71,0.00,,SCT044,0.03,VWS V13.01,2013-08-20 02:13:00,
2013-08-19 22:18:00,68.7,59.0,30.11,SE,129,0.0,0.0,71,0.00,,SCT050,0.03,VWS V13.01,2013-08-20 02:18:00,
2013-08-19 22:23:00,68.7,59.3,30.11,SE,129,0.0,0.0,72,0.00,,SCT050,0.03,VWS V13.01,2013-08-20 02:23:00,
2013-08-19 22:28:00,68.5,59.5,30.11,SW,215,0.0,0.0,73,0.00,,SCT050,0.03,VWS V13.01,2013-08-20 02:28:00,
2013-08-19 22:33:00,68.4,59.8,30.11,SW,227,0.0,0.0,74,0.00,,SCT050,0.03,VWS V13.01,2013-08-20 02:33:00,
2013-08-19 22:38:00,68.4,60.1,30.11,SSW,213,0.0,0.0,75,0.00,,BKN050,0.03,VWS V13.01,2013-08-20 02:38:00,
2013-08-19 22:43:00,68.2,60.0,30.11,SSW,213,0.0,0.0,75,0.00,,BKN050,0.03,VWS V13.01,2013-08-20 02:43:00,
2013-08-19 22:48:00,68.0,59.4,30.11,SSW,213,0.0,0.0,74,0.00,,BKN050,0.03,VWS V13.01,2013-08-20 02:48:00,
2013-08-19 22:53:00,68.0,59.4,30.11,SSW,213,0.0,0.0,74,0.00,,BKN050,0.03,VWS V13.01,2013-08-20 02:53:00,
2013-08-19 22:58:00,67.8,59.6,30.11,SSW,213,0.0,0.0,75,0.00,,SCT065,0.03,VWS V13.01,2013-08-20 02:58:00,
2013-08-19 23:03:00,67.6,59.4,30.11,WSW,242,0.0,0.0,75,0.00,,SCT065,0.03,VWS V13.01,2013-08-20 03:03:00,
2013-08-19 23:08:00,67.3,59.1,30.11,WSW,242,0.0,0.0,75,0.00,,SCT065,0.03,VWS V13.01,2013-08-20 03:08:00,
2013-08-19 23:13:00,67.1,58.9,30.14,ESE,116,3.4,3.4,75,0.00,,SCT065,0.03,VWS V13.01,2013-08-20 03:13:00,
2013-08-19 23:18:00,67.1,59.3,30.14,ESE,103,0.0,2.8,76,0.00,,SCT065,0.03,VWS V13.01,2013-08-20 03:18:00,
2013-08-19 23:23:00,66.9,59.1,30.14,ESE,103,0.0,0.0,76,0.00,,SCT065,0.03,VWS V13.01,2013-08-20 03:23:00,
2013-08-19 23:28:00,66.9,59.1,30.14,ESE,103,0.0,0.0,76,0.00,,SCT065,0.03,VWS V13.01,2013-08-20 03:28:00,
2013-08-19 23:33:00,66.7,58.9,30.14,ESE,103,0.0,0.0,76,0.00,,SCT065,0.03,VWS V13.01,2013-08-20 03:33:00,
2013-08-19 23:38:00,66.6,58.8,30.14,ESE,103,0.0,0.0,76,0.00,,CLR,0.03,VWS V13.01,2013-08-20 03:38:00,
2013-08-19 23:42:00,66.4,59.0,30.14,ESE,103,0.0,0.0,77,0.00,,CLR,0.03,VWS V13.01,2013-08-20 03:42:00,
2013-08-19 23:47:00,66.4,59.0,30.14,ESE,103,0.0,0.0,77,0.00,,CLR,0.03,VWS V13.01,2013-08-20 03:47:00,
2013-08-19 23:52:00,66.2,58.8,30.14,ESE,103,0.0,0.0,77,0.00,,CLR,0.03,VWS V13.01,2013-08-20 03:52:00,
2013-08-19 23:58:00,66.0,59.0,30.14,ESE,103,0.0,0.0,78,0.00,,CLR,0.03,VWS V13.01,2013-08-20 03:58:00,